Location: Highridge
(54.0333°N, 114.1333°W)
Time: 13:34:45
(UTC+00:00)

Oscar 19 - Pass Details

Date: 07 December 2023
Orbit: 771 x 789 km, 98.9° (Epoch: 01 March)

Event Time Altitude Azimuth Distance (km) Brightness Sun altitude
Rises 10:54:41 0° 28° (NNE) 3,276 14.4 -40.3°
Reaches altitude 10° 10:58:06 10° 51° (NE) 2,346 13.7 -39.8°
Maximum altitude 11:00:59 15° 86° (E) 2,022 13.4 -39.4°
Drops below altitude 10° 11:03:51 10° 120° (ESE) 2,342 13.5 -39.0°
Sets 11:07:14 0° 143° (SE) 3,268 14.1 -38.6°
